Location: Arrow Head Lodge
(44.7836°N, 106.9681°W)
Time: 12:20:48
(UTC+00:00)

ISS - Visible Passes

Search period start: 26 October 2021 00:00
Search period end: 05 November 2021 00:00
Orbit: 417 x 423 km, 51.6° (Epoch: 26 October)

Date Brightness Start Highest point End Pass type
(mag) Time Alt. Az. Time Alt. Az. Time Alt. Az.
26 Oct -1.9 11:17:53 32° E 11:17:53 32° E 11:19:58 10° ENE visible
26 Oct -2.9 12:50:53 13° W 12:53:36 36° NNW 12:56:45 10° NE visible
27 Oct -3.4 12:05:48 43° NW 12:06:15 46° NNW 12:09:32 10° NE visible
28 Oct -1.7 11:20:37 27° NE 11:20:37 27° NE 11:22:19 10° ENE visible
28 Oct -2.3 12:53:36 12° WNW 12:56:12 26° N 12:59:06 10° NE visible
29 Oct -2.6 12:08:22 28° NNW 12:08:46 29° NNW 12:11:48 10° NE visible
30 Oct -1.5 11:23:05 21° NE 11:23:05 21° NE 11:24:32 10° NE visible
30 Oct -2.1 12:56:04 10° NW 12:58:50 24° N 13:01:41 10° ENE visible
31 Oct -2.2 12:10:45 23° NNW 12:11:24 24° N 12:14:14 10° NE visible
01 Nov -1.3 11:25:25 19° NNE 11:25:25 19° NNE 11:26:51 10° NE visible
01 Nov -2.4 12:58:23 10° NW 13:01:25 30° NNE 13:04:27 10° ENE visible
02 Nov -2.2 12:13:03 23° NNW 12:13:59 26° N 12:16:54 10° ENE visible
03 Nov -1.4 11:27:44 20° NE 11:27:44 20° NE 11:29:23 10° ENE visible
03 Nov -3.1 13:00:42 11° NW 13:03:53 48° NNE 13:07:09 10° E visible
04 Nov -2.6 12:15:24 28° NNW 12:16:30 36° NNE 12:19:40 10° E visible
